1493899200.34,18698,14.31,73632.5,3.51,0.87,1.37,0,*4E
1493899201.6,18699,14.31,73636.8,3.53,0.87,1.37,0,*4D
1493899202.86,18700,14.38,73634.8,3.53,0.91,1.37,0,*4B
1493899204.08,18701,14.31,73634.5,3.53,0.63,1.01,0,*42
1493899205.32,18702,14.31,73636.3,3.53,0.25,0.63,0,*76
1493899206.54,18703,14.31,73634.5,3.53,0.43,0.91,0,*7A
1493899207.78,18704,14.38,73636.0,3.53,0.41,0.79,0,*79
1493899209.01,18705,14.38,73640.8,3.55,0.83,1.33,0,*4F
1493899210.23,18706,14.31,73638.0,3.55,0.71,1.25,0,*46
1493899211.41,18707,14.31,73630.0,3.55,0.43,0.95,0,*7C
1493899212.66,18708,14.31,73636.5,3.53,0.25,0.75,0,*7B
1493899213.84,18709,14.31,73634.3,3.55,0.43,0.95,0,*72
1493899215.06,18710,14.31,73636.5,3.55,0.41,0.83,0,*7F
1493899216.28,18711,14.38,73638.5,3.55,0.29,0.71,0,*7D
1493899217.49,18712,14.31,73634.8,3.55,0.41,0.95,0,*7A
1493899218.71,18713,14.31,73636.8,3.55,0.91,1.43,0,*4C
1493899219.96,18714,14.31,73634.5,3.57,0.67,1.25,0,*40
1493899221.21,18715,14.31,73634.3,3.57,0.71,1.33,0,*41
1493899222.45,18716,14.38,73634.8,3.57,0.29,0.83,0,*75
1493899223.69,18717,14.31,73634.8,3.57,0.29,0.79,0,*71
1493899224.89,18718,14.31,73632.5,3.59,-0.15,0.37,0,*58
1493899226.09,18719,14.31,73634.5,3.59,0.09,0.59,0,*41
1493899227.31,18720,14.38,73638.8,3.59,0.47,1.09,0,*45
1493899228.53,18721,14.31,73638.5,3.59,0.71,1.33,0,*48
1493899229.75,18722,14.31,73630.3,3.59,0.63,1.09,0,*41
1493899230.97,18723,14.38,73638.3,3.59,0.71,1.29,0,*41
1493899232.19,18724,14.38,73638.8,3.59,0.71,1.21,0,*4E
1493899233.4,18725,14.31,73632.5,3.59,0.59,1.17,0,*40
1493899234.59,18726,14.31,73632.0,3.59,0.51,0.97,0,*72
1493899235.81,18727,14.31,73632.3,3.63,0.75,1.33,0,*43
1493899237.06,18728,14.31,73634.8,3.61,0.79,1.37,0,*46
1493899238.29,18729,14.31,73636.5,3.61,1.01,1.63,0,*78
1493899239.52,18730,14.31,73632.3,3.63,1.13,1.71,0,*72
1493899240.76,18731,14.38,73634.0,3.67,0.67,1.17,0,*45
1493899241.98,18732,14.31,73634.0,3.65,0.29,0.71,0,*7F
1493899243.2,18733,14.31,73628.8,3.67,1.01,1.43,0,*77
1493899244.43,18734,14.31,73624.8,3.65,0.83,1.43,0,*49
1493899245.64,18735,14.38,73624.5,3.65,0.55,0.95,0,*79
1493899246.87,18736,14.31,73630.3,3.65,0.55,0.83,0,*7D
1493899248.11,18737,14.31,73630.5,3.67,0.55,0.95,0,*79
1493899249.35,18738,14.31,73630.0,3.67,0.41,0.79,0,*71
1493899250.57,18739,14.31,73626.5,3.67,0.21,0.43,0,*7F
1493899251.77,18740,14.31,73630.3,3.65,0.67,1.01,0,*46
1493899252.97,18741,14.38,73632.0,3.67,1.01,1.41,0,*70
1493899254.14,18742,14.31,73628.8,3.65,1.05,1.41,0,*75
1493899255.4,18743,14.31,73628.8,3.67,1.25,1.55,0,*71
1493899256.65,18744,14.38,73630.8,3.71,1.33,1.59,0,*7A
1493899257.88,18745,14.31,73628.8,3.73,1.33,1.59,0,*79
1493899259.09,18746,14.31,73628.8,3.73,1.51,1.83,0,*79
1493899260.32,18747,14.38,73632.8,3.73,1.51,1.85,0,*7E
1493899261.55,18748,14.31,73634.0,3.73,1.51,1.85,0,*71
1493899262.77,18749,14.31,73634.3,3.75,1.51,1.83,0,*70
1493899264.0,18750,14.31,73632.3,3.75,1.51,1.83,0,*78
1493899265.2,18751,14.38,73632.0,3.77,1.59,1.79,0,*76
1493899266.42,18752,14.31,73634.0,3.75,0.97,1.25,0,*4D
1493899267.64,18753,14.31,73632.3,3.77,0.91,0.95,0,*72
1493899268.86,18754,14.38,73634.0,3.75,0.97,1.25,0,*4B
1493899270.03,18755,14.31,73634.3,3.77,1.05,1.41,0,*70
1493899271.26,18756,14.31,73636.0,3.77,1.13,1.37,0,*75
1493899272.49,18757,14.31,73632.8,3.79,1.05,1.37,0,*7D
1493899273.75,18758,14.31,73632.8,3.79,1.37,1.55,0,*77
1493899274.97,18759,14.31,73634.0,3.81,1.43,1.71,0,*74
1493899276.17,18760,14.38,73636.5,3.81,1.51,1.79,0,*75
1493899277.38,18761,14.31,73634.5,3.81,0.83,0.95,0,*79
1493899278.61,18762,14.31,73632.3,3.79,1.13,1.41,0,*7D
1493899279.84,18763,14.38,73634.8,3.81,1.09,1.29,0,*7E
1493899281.08,18764,14.31,73628.5,3.79,0.67,0.91,0,*75
1493899282.29,18765,14.31,73630.0,3.81,0.55,0.67,0,*7B
1493899283.52,18766,14.31,73630.8,3.79,0.67,0.95,0,*73
1493899284.78,18767,14.38,73630.0,3.79,0.91,1.13,0,*44
1493899285.96,18768,14.31,73630.8,3.81,0.33,0.43,0,*70
1493899287.18,18769,14.38,73632.5,3.81,0.37,0.55,0,*72
1493899288.38,18770,14.38,73634.5,3.81,1.05,1.29,0,*70
1493899289.6,18771,14.38,73634.3,3.81,0.55,0.55,0,*7F
1493899290.81,18772,14.38,73632.5,3.81,0.71,0.83,0,*71
1493899292.03,18773,14.31,73632.8,3.81,0.37,0.55,0,*79
1493899293.26,18774,14.38,73630.8,3.79,0.67,0.79,0,*72
1493899294.5,18775,14.38,73632.8,3.79,0.55,0.79,0,*72
1493899295.7,18776,14.38,73632.3,3.81,1.17,1.41,0,*7B
1493899296.9,18777,14.31,73626.5,3.81,0.97,1.09,0,*4F
1493899298.11,18778,14.31,73630.8,3.81,0.67,0.87,0,*78
1493899299.36,18779,14.38,73636.0,3.79,0.71,0.83,0,*7D
1493899300.57,18780,14.31,73632.8,3.81,0.37,0.55,0,*75
1493899301.75,18781,14.38,73632.3,3.81,0.37,0.43,0,*73
1493899302.97,18782,14.38,73628.8,3.81,0.63,0.87,0,*79
1493899304.17,18783,14.38,73630.5,3.81,0.97,1.09,0,*44
1493899305.35,18784,14.31,73628.3,3.81,0.43,0.47,0,*71
1493899306.57,18785,14.38,73628.8,3.81,0.55,0.67,0,*75
1493899307.78,18786,14.31,73628.8,3.81,0.25,0.33,0,*70
1493899308.99,18787,14.38,73630.8,3.79,0.43,0.51,0,*72
1493899310.2,18788,14.38,73626.8,3.81,0.59,0.67,0,*74
1493899311.42,18789,14.38,73626.0,3.79,0.51,0.43,0,*7C
1493899312.65,18790,14.38,73628.8,3.83,0.63,0.63,0,*72
1493899313.85,18791,14.38,73634.3,3.81,0.75,0.95,0,*7F
1493899315.07,18792,14.38,73632.3,3.81,0.83,0.95,0,*75
1493899316.29,18793,14.31,73628.0,3.81,0.55,0.55,0,*73
1493899317.51,18794,14.38,73628.8,3.81,0.47,0.55,0,*77
1493899318.73,18795,14.38,73630.0,3.81,0.95,1.09,0,*41
1493899319.93,18796,14.38,73632.0,3.81,1.05,1.29,0,*78
1493899321.16,18797,14.31,73624.0,3.85,1.09,1.25,0,*7D
1493899322.4,18798,14.31,73626.0,3.83,0.71,0.87,0,*73
1493899323.63,18799,14.31,73624.0,3.83,0.37,0.41,0,*7A
1493899324.81,18800,14.38,73628.5,3.85,0.75,0.97,0,*7E
1493899326.07,18801,14.38,73624.8,3.83,1.09,1.37,0,*78
1493899327.29,18802,14.38,73624.3,3.83,1.01,1.37,0,*73
1493899328.52,18803,14.38,73626.3,3.85,1.09,1.43,0,*7F
1493899329.75,18804,14.38,73622.8,3.85,1.09,1.33,0,*7F
1493899330.98,18805,14.31,73618.0,3.85,1.25,1.63,0,*75
1493899332.17,18806,14.31,73618.5,3.89,0.95,1.05,0,*40
1493899333.4,18807,14.38,73620.8,3.87,1.05,1.25,0,*75
1493899334.64,18808,14.38,73620.5,3.87,0.79,0.79,0,*78
1493899335.82,18809,14.31,73620.0,3.89,-0.11,0.05,0,*6F
1493899337.01,18810,14.38,73628.3,3.87,-0.11,0.05,0,*69
1493899338.25,18811,14.38,73624.3,3.87,0.55,0.63,0,*75
1493899339.46,18812,14.31,73624.0,3.89,1.01,1.13,0,*7E
1493899340.71,18813,14.38,73628.0,3.87,1.13,1.25,0,*77
1493899341.94,18814,14.38,73628.8,3.87,1.29,1.41,0,*7B
1493899343.18,18815,14.31,73630.0,3.89,1.29,1.37,0,*75
1493899344.41,18816,14.31,73630.3,3.89,1.37,1.59,0,*71
1493899345.62,18817,14.38,73630.3,3.93,1.43,1.55,0,*74
1493899346.85,18818,14.38,73630.3,3.93,1.33,1.55,0,*7C
1493899348.05,18819,14.31,73628.3,3.93,1.17,1.41,0,*7E
1493899349.28,18820,14.31,73626.8,3.93,1.33,1.51,0,*73
1493899350.52,18821,14.31,73626.8,3.95,1.47,1.67,0,*72
1493899351.75,18822,14.38,73634.3,3.95,1.55,1.75,0,*71
1493899352.98,18823,14.38,73632.3,3.97,1.59,1.75,0,*7E
1493899354.21,18824,14.31,73632.3,3.99,1.37,1.59,0,*71
1493899355.44,18825,14.31,73632.8,3.99,0.87,0.91,0,*7F
1493899356.71,18826,14.31,73632.0,3.97,1.09,1.33,0,*7C
1493899357.92,18827,14.38,73632.8,3.99,0.91,1.05,0,*46
1493899359.14,18828,14.38,73634.3,3.99,0.41,0.51,0,*74
1493899360.35,18829,14.38,73632.8,3.99,0.63,0.87,0,*7E
1493899361.55,18830,14.38,73628.8,3.99,0.67,1.05,0,*49
1493899362.8,18831,14.31,73632.3,4.01,0.79,0.91,0,*7D
1493899364.05,18832,14.31,73630.3,4.01,0.95,1.25,0,*42
1493899365.31,18833,14.38,73632.0,4.01,1.13,1.47,0,*78
1493899366.54,18834,14.31,73630.8,4.01,1.05,1.37,0,*7F
1493899367.8,18835,14.31,73632.5,4.01,1.25,1.51,0,*7C
1493899369.03,18836,14.38,73634.8,4.03,1.21,1.43,0,*7A
1493899370.23,18837,14.38,73638.8,4.03,0.67,0.95,0,*72
1493899371.46,18838,14.38,73634.0,4.03,1.09,1.33,0,*79
1493899372.73,18839,14.31,73630.5,4.05,1.21,1.55,0,*74
1493899373.97,18840,14.38,73634.8,4.05,0.75,1.09,0,*43
1493899375.21,18841,14.38,73636.3,4.07,1.21,1.55,0,*79
1493899376.41,18842,14.38,73636.5,4.07,1.01,1.25,0,*7F
1493899377.63,18843,14.38,73634.3,4.07,0.95,1.25,0,*42
1493899378.86,18844,14.38,73636.0,4.09,0.79,1.01,0,*4F
1493899380.08,18845,14.31,73634.3,4.11,0.79,1.13,0,*44
1493899381.3,18846,14.38,73636.5,4.11,0.55,0.79,0,*74
1493899382.52,18847,14.38,73630.5,4.11,0.51,0.63,0,*7A
1493899383.77,18848,14.38,73628.5,4.09,0.91,1.13,0,*46
1493899385.0,18849,14.31,73628.5,4.09,1.17,1.41,0,*7F
1493899386.21,18850,14.38,73630.0,4.11,0.63,0.79,0,*76
1493899387.43,18851,14.38,73628.0,4.11,0.51,0.63,0,*7D
1493899388.65,18852,14.38,73632.3,4.11,0.63,0.87,0,*75
1493899389.86,18853,14.38,73630.8,4.11,0.41,0.55,0,*7B
1493899391.1,18854,14.38,73632.5,4.13,0.79,0.95,0,*79
1493899392.33,18855,14.31,73630.3,4.13,1.01,1.29,0,*70
1493899393.59,18856,14.38,73632.5,4.13,0.91,1.25,0,*47
1493899394.83,18857,14.31,73628.5,4.13,0.95,1.29,0,*4E
1493899396.08,18858,14.31,73630.5,4.17,0.87,1.21,0,*4E
1493899397.34,18859,14.38,73634.5,4.17,0.83,1.21,0,*4B
1493899398.56,18860,14.38,73632.3,4.17,0.95,1.05,0,*40
1493899399.81,18861,14.38,73634.8,4.13,0.91,1.17,0,*42
1493899401.04,18862,14.38,73632.3,4.17,0.97,1.25,0,*42
1493899402.26,18863,14.31,73634.8,4.19,1.25,1.43,0,*75
1493899403.47,18864,14.38,73634.5,4.19,0.71,0.95,0,*78
1493899404.72,18865,14.38,73636.8,4.21,0.87,1.13,0,*44
1493899405.96,18866,14.38,73636.3,4.21,0.67,0.91,0,*72
1493899407.2,18867,14.38,73632.8,4.21,0.55,0.87,0,*75
1493899408.45,18868,14.38,73642.0,4.21,0.87,1.13,0,*49
1493899409.66,18869,14.38,73634.3,4.23,0.17,0.37,0,*74
1493899410.9,18870,14.31,73630.0,4.21,0.51,0.75,0,*7A
1493899412.12,18871,14.31,73628.8,4.23,0.55,0.67,0,*7E
1493899413.33,18872,14.38,73630.5,4.23,0.51,0.67,0,*79
1493899414.55,18873,14.38,73630.8,4.23,0.55,0.75,0,*7F
1493899415.77,18874,14.31,73626.0,4.23,0.79,1.13,0,*47
1493899417.02,18875,14.38,73620.8,4.25,1.17,1.43,0,*7C
1493899418.24,18876,14.38,73622.5,4.25,1.17,1.41,0,*7D
1493899419.45,18877,14.38,73630.0,4.23,0.75,0.87,0,*74
1493899420.64,18878,14.38,73632.5,4.23,-0.07,0.29,0,*67
1493899421.86,18879,14.38,73634.5,4.25,0.71,1.01,0,*47
1493899423.09,18880,14.31,73632.5,4.25,0.17,0.21,0,*72
1493899424.3,18881,14.38,73628.8,4.25,0.43,0.59,0,*7D
1493899425.52,18882,14.38,73624.3,4.25,1.17,1.41,0,*76
1493899426.76,18883,14.38,73628.3,4.27,1.13,1.33,0,*74
1493899427.95,18884,14.38,73624.8,4.29,0.09,0.37,0,*42
1493899429.16,18885,14.38,73624.3,4.29,0.33,0.51,0,*7A
1493899430.39,18886,14.38,73624.5,4.29,0.51,0.59,0,*75
1493899431.59,18887,14.38,73628.3,4.27,0.33,0.47,0,*71
1493899432.8,18888,14.31,73628.3,4.29,1.05,1.09,0,*7F
1493899434.04,18889,14.31,73634.8,4.29,1.33,1.43,0,*75
1493899435.29,18890,14.31,73632.5,4.31,1.51,1.63,0,*72
1493899436.49,18891,14.38,73638.8,4.33,0.97,1.13,0,*4D
1493899437.69,18892,14.38,73638.5,4.33,0.79,0.97,0,*73
1493899438.92,18893,14.38,73638.5,4.33,0.79,0.91,0,*74
1493899440.1,18894,14.38,73636.0,4.33,0.75,0.97,0,*79
1493899441.32,18895,14.38,73634.5,4.35,0.83,1.05,0,*4D
1493899442.57,18896,14.38,73632.8,4.39,0.91,1.17,0,*42
1493899443.83,18897,14.38,73630.0,4.39,1.13,1.43,0,*79
1493899445.07,18898,14.38,73630.3,4.39,1.25,1.51,0,*70
1493899446.33,18899,14.38,73630.8,4.43,1.33,1.47,0,*7C
1493899447.58,18900,14.38,73632.3,4.43,1.25,1.51,0,*7D
1493899448.82,18901,14.38,73634.8,4.43,1.47,1.71,0,*7A
1493899450.08,18902,14.38,73640.8,4.47,1.37,1.55,0,*7C
1493899451.31,18903,14.38,73638.5,4.47,0.91,1.01,0,*41
1493899452.55,18904,14.38,73634.8,4.47,0.63,0.71,0,*7D
1493899453.78,18905,14.38,73630.8,4.47,1.05,1.17,0,*7C
1493899455.01,18906,14.38,73632.3,4.49,1.25,1.29,0,*7E
1493899456.23,18907,14.38,73638.5,4.51,1.05,1.17,0,*79
1493899457.47,18908,14.38,73638.8,4.51,0.71,0.83,0,*78
1493899458.71,18909,14.38,73632.8,4.51,0.67,0.87,0,*7A
1493899459.94,18910,14.31,73630.3,4.51,0.75,0.67,0,*7F
1493899461.18,18911,14.38,73624.5,4.51,0.55,0.55,0,*7D
1493899462.4,18912,14.38,73632.5,4.53,0.25,0.33,0,*7B
1493899463.62,18913,14.38,73638.8,4.53,0.59,0.59,0,*7D
1493899464.82,18914,14.31,73628.5,4.53,0.67,0.67,0,*7A
1493899466.07,18915,14.38,73630.8,4.55,0.47,0.51,0,*7A
1493899467.28,18916,14.38,73636.8,4.53,0.33,0.25,0,*7F
1493899468.52,18917,14.38,73636.0,4.55,0.41,0.59,0,*76
1493899469.74,18918,14.38,73636.3,4.53,0.47,0.55,0,*75
1493899470.98,18919,14.38,73632.3,4.55,0.59,0.63,0,*78
1493899472.22,18920,14.38,73628.3,4.55,0.59,0.63,0,*72
1493899473.44,18921,14.38,73636.0,4.57,0.79,0.79,0,*78
1493899474.66,18922,14.38,73634.0,4.61,0.55,0.67,0,*7F
1493899475.83,18923,14.38,73636.3,4.57,1.05,1.05,0,*7A
1493899477.06,18924,14.38,73634.5,4.61,0.83,0.83,0,*78
1493899478.24,18925,14.38,73636.0,4.61,1.05,1.01,0,*7D
1493899479.48,18926,14.38,73632.0,4.61,1.13,1.17,0,*7E
1493899480.74,18927,14.38,73634.0,4.63,1.09,1.09,0,*79
1493899481.95,18928,14.38,73634.8,4.65,0.95,0.95,0,*70
1493899483.18,18929,14.38,73636.0,4.65,1.09,1.09,0,*71
1493899484.41,18930,14.38,73636.8,4.67,1.09,1.01,0,*73
1493899485.64,18931,14.38,73634.3,4.69,1.13,1.13,0,*74
1493899486.85,18932,14.38,73632.3,4.69,1.13,1.05,0,*70
1493899488.09,18933,14.38,73632.3,4.69,1.17,1.17,0,*76
1493899489.29,18934,14.38,73634.0,4.69,0.91,1.01,0,*49
1493899490.46,18935,14.38,73634.0,4.69,1.01,1.05,0,*74
1493899491.7,18936,14.38,73634.5,4.73,1.09,1.17,0,*77
1493899492.94,18937,14.38,73632.3,4.73,1.21,1.21,0,*79
1493899494.16,18938,14.38,73632.8,4.73,0.95,0.91,0,*72
1493899495.37,18939,14.38,73636.5,4.73,0.33,0.21,0,*74
1493899496.59,18940,14.38,73630.3,4.73,0.83,0.83,0,*79
1493899497.82,18941,14.38,73632.5,4.73,0.91,0.83,0,*7B
1493899499.03,18942,14.38,73632.0,4.75,-0.41,-0.49,0,*75
1493899500.22,18943,14.38,73632.8,4.73,0.83,0.97,0,*7F
1493899501.45,18944,14.38,73632.3,4.73,1.17,1.17,0,*7D
1493899502.63,18945,14.38,73632.5,4.77,0.97,1.01,0,*46
1493899503.87,18946,14.38,73636.0,4.75,0.95,1.17,0,*42
1493899505.1,18947,14.31,73630.0,4.75,1.09,1.41,0,*74
1493899506.32,18948,14.38,73632.3,4.77,1.25,1.47,0,*71
1493899507.56,18949,14.38,73638.0,4.79,1.05,1.37,0,*7B
1493899508.76,18950,14.38,73636.5,4.81,0.97,1.25,0,*4D
1493899509.97,18951,14.38,73636.0,4.81,0.41,0.79,0,*7F
1493899511.21,18952,14.38,73638.5,4.79,0.51,0.67,0,*75
1493899512.45,18953,14.38,73636.0,4.79,0.13,0.29,0,*78
1493899513.65,18954,14.38,73634.5,4.79,-0.33,-0.19,0,*7E
1493899514.89,18955,14.38,73628.5,4.79,0.17,0.41,0,*74
1493899516.1,18956,14.38,73630.5,4.81,0.41,0.51,0,*72
1493899517.29,18957,14.38,73632.8,4.81,0.01,0.29,0,*48
1493899518.52,18958,14.38,73634.8,4.79,0.33,0.63,0,*7F
1493899519.73,18959,14.38,73638.5,4.79,-0.53,-0.29,0,*76
1493899520.92,18960,14.38,73632.8,4.77,-0.27,0.01,0,*66
1493899522.12,18961,14.38,73632.0,4.77,-0.03,0.47,0,*63
1493899523.36,18962,14.38,73632.8,4.75,0.17,0.59,0,*75
1493899524.6,18963,14.38,73630.5,4.79,0.33,0.87,0,*7D
1493899525.85,18964,14.38,73632.5,4.75,0.21,0.59,0,*76
1493899527.07,18965,14.38,73632.8,4.77,0.29,0.75,0,*73
1493899528.28,18966,14.38,73630.3,4.77,0.41,0.83,0,*77
1493899529.5,18967,14.38,73626.8,4.77,0.41,0.71,0,*7B
1493899530.74,18968,14.38,73626.5,4.75,0.37,0.55,0,*71
1493899531.99,18969,14.38,73628.8,4.75,0.55,0.79,0,*7A
1493899533.2,18970,14.38,73630.0,4.77,0.59,0.75,0,*70
1493899534.44,18971,14.38,73622.5,4.77,1.09,1.21,0,*75
1493899535.61,18972,14.38,73628.5,4.77,0.97,0.97,0,*7C
1493899536.84,18973,14.38,73622.3,4.79,1.05,1.13,0,*74
1493899538.07,18974,14.38,73618.5,4.79,1.05,1.13,0,*73
1493899539.3,18975,14.38,73626.0,4.81,0.91,0.87,0,*75
1493899540.55,18976,14.38,73624.5,4.79,0.79,0.75,0,*7A
1493899541.74,18977,14.38,73624.5,4.81,0.51,0.43,0,*73
1493899542.94,18978,14.38,73622.3,4.79,0.05,-0.19,0,*68
1493899544.14,18979,14.38,73624.3,4.81,0.17,-0.11,0,*55
1493899545.36,18980,14.38,73630.5,4.81,0.79,0.55,0,*76
1493899546.58,18981,14.38,73630.3,4.81,0.55,0.29,0,*72
1493899547.76,18982,14.38,73630.5,4.81,-0.07,-0.45,0,*4C
1493899548.97,18983,14.38,73628.8,4.79,0.25,0.01,0,*4A
1493899550.19,18984,14.38,73628.8,4.85,0.83,0.55,0,*73
1493899551.41,18985,14.38,73632.8,4.85,0.79,0.59,0,*7B
1493899552.64,18986,14.38,73632.0,4.85,1.09,0.95,0,*4E
1493899553.87,18987,14.38,73628.3,4.87,0.67,0.55,0,*78
1493899555.09,18988,14.38,73630.5,4.87,0.59,0.43,0,*7D
1493899556.34,18989,14.38,73632.3,4.87,0.79,0.59,0,*75
1493899557.56,18990,14.38,73634.5,4.89,0.95,0.83,0,*76
1493899558.79,18991,14.38,73634.8,4.89,1.33,1.13,0,*72
1493899560.0,18992,14.38,73634.0,4.91,1.51,1.41,0,*7B
1493899561.25,18993,14.38,73628.3,4.91,1.47,1.37,0,*7C
1493899562.5,18994,14.38,73632.8,4.95,1.37,1.33,0,*7C
1493899563.73,18995,14.38,73634.0,4.95,1.13,0.95,0,*46
1493899564.97,18996,14.38,73636.0,4.95,1.33,1.29,0,*71
1493899566.21,18997,14.38,73634.0,4.97,1.43,1.29,0,*75
1493899567.44,18998,14.38,73636.5,4.97,1.41,1.33,0,*73
1493899568.67,18999,14.38,73638.3,4.99,1.43,1.43,0,*79
1493899569.91,19000,14.38,73632.8,4.99,1.33,1.33,0,*71
1493899571.14,19001,14.38,73632.5,5.03,1.25,1.13,0,*77
1493899572.36,19002,14.38,73630.3,5.03,0.79,0.79,0,*71
1493899573.56,19003,14.38,73632.5,5.03,1.09,0.97,0,*46
1493899574.77,19004,14.38,73634.5,5.03,1.09,1.01,0,*7F
1493899576.0,19005,14.38,73636.0,5.07,1.29,1.25,0,*7E
1493899577.25,19006,14.38,73632.0,5.09,1.25,1.13,0,*7A
1493899578.51,19007,14.38,73632.5,5.09,0.91,0.91,0,*7E
1493899579.74,19008,14.38,73638.8,5.09,1.13,1.05,0,*76
1493899580.97,19009,14.38,73638.0,5.13,1.41,1.37,0,*7A
1493899582.22,19010,14.38,73634.5,5.13,1.25,1.21,0,*77
1493899583.47,19011,14.38,73632.8,5.13,1.33,1.25,0,*75
1493899584.68,19012,14.38,73634.5,5.17,1.05,1.05,0,*75
1493899585.9,19013,14.38,73636.8,5.17,1.05,0.91,0,*48
1493899587.16,19014,14.38,73634.3,5.17,1.25,1.17,0,*72
1493899588.41,19015,14.38,73632.3,5.17,1.29,1.25,0,*7E
1493899589.61,19016,14.38,73630.5,5.19,1.05,0.95,0,*47
1493899590.79,19017,14.38,73632.8,5.19,1.05,1.05,0,*7E
1493899592.01,19018,14.38,73634.8,5.21,1.09,1.05,0,*76
1493899593.27,19019,14.38,73634.3,5.21,1.17,1.17,0,*7B
1493899594.51,19020,14.38,73632.0,5.25,1.33,1.21,0,*76
1493899595.67,19021,14.38,73634.5,5.23,0.97,0.97,0,*72
1493899596.9,19022,14.38,73634.0,5.25,1.25,1.25,0,*77
1493899598.14,19023,14.38,73636.5,5.29,1.29,1.29,0,*7A
1493899599.34,19024,14.38,73634.8,5.29,0.67,0.51,0,*78
1493899600.56,19025,14.38,73636.8,5.29,0.55,0.51,0,*78
1493899601.78,19026,14.38,73636.5,5.29,0.83,0.75,0,*76
1493899603.01,19027,14.38,73636.0,5.31,0.75,0.67,0,*74
1493899604.23,19028,14.38,73636.5,5.31,0.63,0.43,0,*7A
1493899605.41,19029,14.38,73632.8,5.29,0.33,0.09,0,*49
1493899606.65,19030,14.38,73634.8,5.31,0.75,0.67,0,*72
1493899607.88,19031,14.38,73630.3,5.31,0.75,0.63,0,*77
1493899609.13,19032,14.38,73632.0,5.31,0.91,0.75,0,*79
1493899610.35,19033,14.38,73628.0,5.29,0.79,0.63,0,*70
1493899611.6,19034,14.38,73620.8,5.31,0.91,0.83,0,*76
1493899612.83,19035,14.38,73624.5,5.33,1.17,1.09,0,*79
1493899614.09,19036,14.38,73628.8,5.35,1.17,1.17,0,*73
1493899615.33,19037,14.38,73632.3,5.35,1.09,1.05,0,*7E
1493899616.57,19038,14.38,73634.5,5.35,0.67,0.47,0,*7F
1493899617.81,19039,14.38,73636.3,5.35,0.47,0.37,0,*7B
1493899619.01,19040,14.38,73634.5,5.37,1.01,0.91,0,*48
1493899620.22,19041,14.38,73632.3,5.41,1.09,1.05,0,*7C
1493899621.44,19042,14.38,73628.0,5.41,1.13,0.95,0,*4C
1493899622.67,19043,14.38,73630.3,5.41,0.91,0.91,0,*72
1493899623.9,19044,14.38,73626.5,5.41,1.17,1.17,0,*75
1493899625.06,19045,14.38,73630.3,5.41,0.43,0.43,0,*74
1493899626.26,19046,14.38,73634.0,5.41,0.67,0.67,0,*77
1493899627.52,19047,14.38,73632.8,5.43,1.21,1.21,0,*74
1493899628.75,19048,14.38,73634.5,5.41,0.79,0.55,0,*77
1493899629.93,19049,14.38,73634.3,5.41,0.43,0.41,0,*7A
1493899631.14,19050,14.38,73632.5,5.41,0.33,0.21,0,*73
1493899632.33,19051,14.38,73630.5,5.43,0.09,-0.07,0,*50
1493899633.55,19052,14.38,73628.8,5.41,0.21,0.21,0,*72
1493899634.73,19053,14.38,73634.3,5.41,0.43,0.41,0,*71
1493899635.96,19054,14.38,73630.8,5.43,0.33,0.21,0,*75
1493899637.18,19055,14.38,73630.3,5.41,0.79,0.75,0,*79
1493899638.39,19056,14.38,73630.3,5.41,0.95,0.95,0,*76
1493899639.64,19057,14.38,73634.0,5.43,0.91,0.95,0,*71
1493899640.87,19058,14.38,73628.0,5.45,1.33,1.21,0,*7F
1493899642.1,19059,14.38,73634.8,5.45,1.33,1.25,0,*7A
1493899643.33,19060,14.38,73628.3,5.49,1.13,1.13,0,*7B
1493899644.55,19061,14.38,73628.8,5.49,1.13,0.95,0,*45
1493899645.8,19062,14.38,73632.3,5.51,0.55,0.63,0,*75
1493899647.02,19063,14.38,73632.5,5.53,1.09,1.09,0,*73
1493899648.24,19064,14.38,73632.3,5.53,1.43,1.33,0,*73
1493899649.47,19065,14.38,73632.3,5.53,1.21,1.09,0,*7F
1493899650.71,19066,14.38,73634.3,5.53,1.29,1.21,0,*7E
1493899651.93,19067,14.38,73634.3,5.53,1.33,1.29,0,*7C
1493899653.15,19068,14.38,73636.0,5.59,0.95,0.83,0,*75
1493899654.36,19069,14.38,73634.8,5.59,0.75,0.63,0,*74
1493899655.53,19070,14.38,73630.5,5.59,1.05,0.97,0,*41
1493899656.74,19071,14.38,73628.0,5.59,1.09,1.05,0,*76
1493899657.98,19072,14.38,73632.5,5.57,0.83,0.75,0,*7E
1493899659.2,19073,14.38,73632.3,5.59,0.71,0.63,0,*7B
1493899660.41,19074,14.38,73634.3,5.59,0.63,0.47,0,*79
1493899661.65,19075,14.38,73632.0,5.57,0.75,0.71,0,*74
1493899662.88,19076,14.38,73632.5,5.61,0.91,0.67,0,*7F
1493899664.09,19077,14.38,73630.3,5.61,0.43,0.25,0,*77
1493899665.32,19078,14.38,73632.8,5.61,0.41,0.29,0,*76
1493899666.56,19079,14.38,73634.3,5.61,0.87,0.75,0,*74
1493899667.79,19080,14.38,73630.0,5.61,0.67,0.55,0,*7E
1493899669.0,19081,14.38,73636.3,5.63,0.67,0.51,0,*79
1493899670.2,19082,14.38,73638.0,5.57,0.09,-0.37,0,*68
1493899671.41,19083,14.38,73634.8,5.61,0.63,0.43,0,*7E
1493899672.63,19084,14.38,73634.5,5.61,1.01,0.87,0,*44
1493899673.84,19085,14.38,73630.5,5.63,0.79,0.67,0,*77
1493899675.08,19086,14.38,73638.3,5.61,0.87,0.63,0,*73
1493899676.29,19087,14.38,73632.3,5.63,0.51,0.41,0,*7B
1493899677.5,19088,14.38,73632.0,5.63,0.55,0.33,0,*75
1493899678.7,19089,14.38,73632.8,5.61,0.43,0.33,0,*71
1493899679.9,19090,14.38,73636.3,5.63,0.75,0.67,0,*7F
1493899681.14,19091,14.38,73640.0,5.61,0.63,0.51,0,*7E
1493899682.34,19092,14.38,73634.3,5.63,0.29,0.13,0,*77
1493899683.54,19093,14.38,73630.8,5.61,0.43,0.17,0,*7C
1493899684.76,19094,14.38,73632.3,5.61,0.51,0.43,0,*79
1493899685.97,19095,14.38,73628.5,5.63,0.63,0.55,0,*7C
1493899687.15,19096,14.38,73624.5,5.63,-0.11,-0.33,0,*7A
1493899688.36,19097,14.38,73628.0,5.61,0.17,0.05,0,*4A
1493899689.55,19098,14.38,73632.0,5.61,0.05,-0.19,0,*66
1493899690.73,19099,14.38,73628.0,5.61,0.01,-0.07,0,*5C
1493899691.9,19100,14.38,73632.5,5.63,0.43,0.33,0,*73
1493899693.14,19101,14.38,73638.0,5.61,0.67,0.55,0,*76
1493899694.37,19102,14.38,73628.0,5.61,0.51,0.33,0,*70
1493899695.61,19103,14.38,73630.3,5.61,0.91,0.79,0,*73
1493899696.85,19104,14.38,73630.3,5.61,0.87,0.91,0,*75
1493899698.06,19105,14.38,73632.8,5.67,1.29,1.05,0,*7B
1493899699.24,19106,14.38,73630.8,5.63,0.67,0.43,0,*74
1493899700.44,19107,14.38,73630.3,5.63,1.01,0.87,0,*4C
1493899701.63,19108,14.38,73634.8,5.63,1.01,0.79,0,*42
1493899702.85,19109,14.38,73636.8,5.67,0.95,0.91,0,*7D
1493899704.1,19110,14.38,73632.3,5.69,1.25,1.09,0,*71
1493899705.34,19111,14.38,73630.5,5.69,0.87,0.75,0,*73
1493899706.58,19112,14.38,73632.5,5.69,0.87,0.87,0,*7D
1493899707.79,19113,14.38,73638.0,5.71,0.83,0.63,0,*7B
1493899709.0,19114,14.38,73632.0,5.71,0.63,0.47,0,*74
1493899710.2,19115,14.38,73636.0,5.71,0.51,0.33,0,*77
1493899711.41,19116,14.38,73634.3,5.71,0.41,0.25,0,*72
1493899712.58,19117,14.38,73638.0,5.71,0.13,0.01,0,*42
1493899713.77,19118,14.38,73636.8,5.71,0.25,0.09,0,*40
1493899715.0,19119,14.38,73630.8,5.73,0.79,0.67,0,*72
1493899716.21,19120,14.38,73630.3,5.71,0.71,0.51,0,*77
1493899717.42,19121,14.38,73634.8,5.71,0.71,0.47,0,*71
1493899718.63,19122,14.38,73638.8,5.71,0.63,0.51,0,*76
1493899719.87,19123,14.38,73634.0,5.73,0.79,0.75,0,*78
1493899721.1,19124,14.38,73634.3,5.73,0.41,0.25,0,*71
1493899722.34,19125,14.38,73636.3,5.73,0.79,0.71,0,*7A
1493899723.56,19126,14.38,73638.5,5.73,1.01,0.79,0,*4F
1493899724.77,19127,14.38,73638.8,5.73,0.97,0.79,0,*70
1493899726.02,19128,14.38,73642.8,5.73,0.55,0.55,0,*7F
1493899727.22,19129,14.38,73636.5,5.73,0.43,0.41,0,*7C
1493899728.4,19130,14.38,73632.8,5.75,0.43,0.29,0,*7C
1493899729.61,19131,14.38,73632.3,5.75,0.91,0.67,0,*78
1493899730.81,19132,14.38,73632.5,5.75,0.67,0.41,0,*76
1493899732.02,19133,14.38,73630.5,5.75,0.67,0.51,0,*76